Starlink 36101

operational
NORAD ID: 66867 Int'l Des: 2025-281 Owner: SPXS Country: US Constellation: starlink
LEOCIRCULAR

About Starlink 36101

Description loading...

Live Position

Loading 3D Globe...

Upcoming Passes

Altitude History

Altitude vs Time

uPlot chart will show altitude changes over time

Two-Line Element Set

1 66867U 25281V 26047.19189364 .00024999 00000-0 91431-3 0 9995
2 66867 42.9935 105.2303 0000508 163.7161 196.3707 15.27600892 12881
Epoch: Feb 16, 2026 • Age: 19 hours

Current Status

Altitude 485.2 km
Velocity 7.63 km/s
Sub-Earth Point 39.28°N, 18.54°E
Launch Date Dec 2, 2025
Age 0.2 years
Type internet

Technical Details

Classification Payload
Mass 575.00 kg
Dry Mass 530.00 kg
Total Mass 575.00 kg
Length 0.30 m
Diameter 4.10 m
Span 29.00 m
Shape Box + pan
Manufacturer SPXS
Bus Type Starlink V2MO
Phase Status In Orbit
Owner/State SPXS/US

Large Constellations

Loading constellations...